This is the latest recevied weather packets stored in our database for station/object SQ5LTL-2. If no packets are shown the sender has not sent any weather packets the latest 10 day(s).
| Time | Temp. | Humidity | Pressure | Rain* | Wind** | Luminosity | Snow |
|---|---|---|---|---|---|---|---|
| 1777881024 | 22.22° C | 35% | 1016 hPa | 0 mm | - | 375 W/m² | - |
| 1777880721 | 22.22° C | 36% | 1015.9 hPa | 0 mm | - | 309 W/m² | - |
| 1777880420 | 22.22° C | 35% | 1016.1 hPa | 0 mm | - | 417 W/m² | - |
| 1777880119 | 21.67° C | 36% | 1016.1 hPa | 0 mm | - | 410 W/m² | - |
| 1777879817 | 21.67° C | 36% | 1016.2 hPa | 0 mm | - | 406 W/m² | - |
| 1777879535 | 21.67° C | 36% | 1016.2 hPa | 0 mm | - | 392 W/m² | - |
| 1777879234 | 21.11° C | 37% | 1016.2 hPa | 0 mm | - | 378 W/m² | - |
| 1777878934 | 21.11° C | 37% | 1016.4 hPa | 0 mm | - | 364 W/m² | - |
| 1777878631 | 20.56° C | 38% | 1016.4 hPa | 0 mm | - | 351 W/m² | - |
| 1777878330 | 20° C | 40% | 1016.4 hPa | 0 mm | - | 334 W/m² | - |
| 1777878028 | 20° C | 41% | 1016.5 hPa | 0 mm | - | 323 W/m² | - |
| 1777877726 | 19.44° C | 43% | 1016.5 hPa | 0 mm | - | 312 W/m² | - |
| 1777877425 | 18.89° C | 44% | 1016.6 hPa | 0 mm | - | 297 W/m² | - |
| 1777877124 | 18.33° C | 46% | 1016.6 hPa | 0 mm | - | 291 W/m² | - |
| 1777876822 | 17.78° C | 48% | 1016.5 hPa | 0 mm | - | 278 W/m² | - |
| 1777876522 | 17.78° C | 49% | 1016.6 hPa | 0 mm | - | 268 W/m² | - |
| 1777876219 | 17.22° C | 50% | 1016.6 hPa | 0 mm | - | 255 W/m² | - |
| 1777875917 | 16.67° C | 50% | 1016.5 hPa | 0 mm | - | 249 W/m² | - |
| 1777875616 | 16.67° C | 50% | 1016.6 hPa | 0 mm | - | 238 W/m² | - |
| 1777875335 | 16.67° C | 50% | 1016.6 hPa | 0 mm | - | 225 W/m² | - |
| 1777875034 | 16.67° C | 51% | 1016.6 hPa | 0 mm | - | 212 W/m² | - |
| 1777874732 | 16.11° C | 52% | 1016.6 hPa | 0 mm | - | 201 W/m² | - |
| 1777874431 | 15.56° C | 53% | 1016.5 hPa | 0 mm | - | 190 W/m² | - |
| 1777874129 | 15.56° C | 53% | 1016.4 hPa | 0 mm | - | 179 W/m² | - |
| 1777873828 | 15.56° C | 53% | 1016.4 hPa | 0 mm | - | 169 W/m² | - |
* Rain latest hour (hover to see other rain measurements)
** Current wind speed in m/s (hover to see current wind gust speed)